CTV688 NWWW-NVVV

Flight info

Callsign CTV688
Flight time 0h 50m
Altitude 35000
Route LTO3E LTO B590 LEDIT
Aircraft A320/M-SDE3FGHIRWY/LB1

Departure

Time 2026-04-24 10:07
Airport La Tontouta International Airport (NWWW)

Arrival

Time 2026-04-24 10:57
Airport Bauerfield International Airport (NVVV)
Time Latitude Longitude Altitude Speed Heading
2026-04-24 09:53 -22.01340 166.21599 25 ft 0 kts 121°
2026-04-24 09:54 -22.01335 166.21592 26 ft 1 kts 121°
2026-04-24 09:54 -22.01330 166.21582 26 ft 1 kts 121°
2026-04-24 09:54 -22.01325 166.21573 25 ft 1 kts 121°
2026-04-24 09:54 -22.01320 166.21564 26 ft 1 kts 121°
2026-04-24 09:55 -22.01314 166.21554 27 ft 1 kts 121°
2026-04-24 09:55 -22.01309 166.21545 26 ft 1 kts 121°
2026-04-24 09:55 -22.01304 166.21536 26 ft 1 kts 121°
2026-04-24 09:55 -22.01299 166.21526 26 ft 1 kts 140°
2026-04-24 09:56 -22.01291 166.21520 28 ft 1 kts 166°
2026-04-24 09:56 -22.01281 166.21518 24 ft 1 kts 191°
2026-04-24 09:56 -22.01274 166.21519 24 ft 0 kts 208°
2026-04-24 09:57 -22.01278 166.21517 24 ft 4 kts 208°
2026-04-24 09:58 -22.01314 166.21496 24 ft 6 kts 210°
2026-04-24 09:58 -22.01344 166.21476 24 ft 5 kts 212°
2026-04-24 09:58 -22.01370 166.21458 24 ft 4 kts 212°
2026-04-24 09:58 -22.01391 166.21443 25 ft 3 kts 212°
2026-04-24 09:59 -22.01427 166.21419 24 ft 7 kts 211°
2026-04-24 09:59 -22.01468 166.21344 24 ft 20 kts 272°
2026-04-24 09:59 -22.01395 166.21198 25 ft 24 kts 299°
2026-04-24 09:59 -22.01306 166.21038 25 ft 26 kts 302°
2026-04-24 10:00 -22.01210 166.20870 23 ft 28 kts 301°
2026-04-24 10:00 -22.01106 166.20687 23 ft 29 kts 301°
2026-04-24 10:00 -22.00998 166.20496 19 ft 30 kts 301°
2026-04-24 10:00 -22.00907 166.20333 16 ft 13 kts 301°
2026-04-24 10:01 -22.00863 166.20254 17 ft 12 kts 301°
2026-04-24 10:01 -22.00819 166.20175 14 ft 12 kts 301°
2026-04-24 10:01 -22.00788 166.20120 14 ft 4 kts 301°
2026-04-24 10:01 -22.00784 166.20112 14 ft 0 kts 301°
2026-04-24 10:02 -22.00781 166.20107 14 ft 2 kts 301°
2026-04-24 10:02 -22.00772 166.20091 14 ft 6 kts 302°
2026-04-24 10:03 -22.00750 166.20052 14 ft 6 kts 302°
2026-04-24 10:03 -22.00729 166.20016 15 ft 5 kts 302°
2026-04-24 10:03 -22.00709 166.19981 13 ft 6 kts 302°
2026-04-24 10:03 -22.00697 166.19979 13 ft 1 kts 60°
2026-04-24 10:04 -22.00704 166.19985 13 ft 1 kts 140°
2026-04-24 10:04 -22.00743 166.20038 14 ft 0 kts 119°
2026-04-24 10:06 -22.00897 166.20315 17 ft 81 kts 121°
2026-04-24 10:06 -22.01297 166.21027 23 ft 139 kts 121°
2026-04-24 10:07 -22.01857 166.22018 385 ft 156 kts 122°
2026-04-24 10:07 -22.02415 166.23005 1195 ft 153 kts 121°
2026-04-24 10:07 -22.02993 166.24045 1661 ft 174 kts 120°
2026-04-24 10:07 -22.03667 166.25199 2073 ft 190 kts 122°
2026-04-24 10:08 -22.04676 166.26220 2427 ft 214 kts 150°
2026-04-24 10:08 -22.06173 166.26677 2877 ft 240 kts 178°
2026-04-24 10:08 -22.07849 166.26198 3410 ft 265 kts 212°
2026-04-24 10:08 -22.09180 166.24753 4168 ft 277 kts 230°
2026-04-24 10:09 -22.10261 166.23018 5134 ft 281 kts 243°
2026-04-24 10:09 -22.10653 166.20960 6078 ft 284 kts 274°
2026-04-24 10:09 -22.10105 166.18931 7024 ft 284 kts 301°
2026-04-24 10:09 -22.08805 166.17353 8000 ft 283 kts 324°
2026-04-24 10:10 -22.07024 166.16474 8972 ft 285 kts 348°
2026-04-24 10:10 -22.05049 166.16603 9915 ft 291 kts 17°
2026-04-24 10:10 -22.03332 166.17788 10743 ft 300 kts 45°
2026-04-24 10:10 -22.02039 166.19592 11495 ft 306 kts 46°
2026-04-24 10:11 -22.00474 166.21123 12257 ft 305 kts 28°
2026-04-24 10:11 -21.98539 166.21844 12969 ft 297 kts 358°
2026-04-24 10:11 -21.96487 166.21729 13729 ft 299 kts 354°
2026-04-24 10:11 -21.94388 166.21918 14436 ft 308 kts
2026-04-24 10:12 -21.92265 166.22643 14608 ft 338 kts 20°
2026-04-24 10:12 -21.90143 166.23975 14633 ft 367 kts 27°
2026-04-24 10:12 -21.87894 166.25330 15116 ft 370 kts 21°
2026-04-24 10:12 -21.85548 166.26428 15683 ft 373 kts 17°
2026-04-24 10:13 -21.83203 166.27453 16216 ft 377 kts 17°
2026-04-24 10:13 -21.80793 166.28517 16799 ft 381 kts 17°
2026-04-24 10:13 -21.78332 166.29643 17346 ft 386 kts 17°
2026-04-24 10:13 -21.75821 166.30832 17879 ft 392 kts 18°
2026-04-24 10:14 -21.73326 166.32043 18420 ft 396 kts 19°
2026-04-24 10:14 -21.70810 166.33283 18889 ft 399 kts 19°
2026-04-24 10:14 -21.68282 166.34536 19420 ft 401 kts 19°
2026-04-24 10:14 -21.65747 166.35789 19965 ft 401 kts 19°
2026-04-24 10:15 -21.63207 166.37038 20500 ft 402 kts 19°
2026-04-24 10:15 -21.60691 166.38267 21010 ft 403 kts 19°
2026-04-24 10:15 -21.58097 166.39532 21531 ft 405 kts 19°
2026-04-24 10:15 -21.55535 166.40780 22058 ft 405 kts 20°
2026-04-24 10:16 -21.52973 166.42029 22678 ft 403 kts 20°
2026-04-24 10:16 -21.50463 166.43251 23252 ft 402 kts 20°
2026-04-24 10:16 -21.47910 166.44488 23790 ft 401 kts 20°
2026-04-24 10:16 -21.45367 166.45720 24198 ft 402 kts 20°
2026-04-24 10:17 -21.42806 166.46960 24573 ft 404 kts 20°
2026-04-24 10:17 -21.40235 166.48204 24940 ft 406 kts 20°
2026-04-24 10:17 -21.37656 166.49452 25296 ft 408 kts 19°
2026-04-24 10:17 -21.35057 166.50713 25642 ft 410 kts 19°
2026-04-24 10:18 -21.32450 166.51980 25960 ft 413 kts 19°
2026-04-24 10:18 -21.29819 166.53261 26274 ft 416 kts 19°
2026-04-24 10:18 -21.27176 166.54547 26605 ft 418 kts 19°
2026-04-24 10:18 -21.24526 166.55835 26951 ft 420 kts 19°
2026-04-24 10:19 -21.21857 166.57131 27324 ft 421 kts 19°
2026-04-24 10:19 -21.19180 166.58429 27662 ft 423 kts 18°
2026-04-24 10:19 -21.16492 166.59728 27986 ft 425 kts 18°
2026-04-24 10:19 -21.13791 166.61032 28294 ft 427 kts 18°
2026-04-24 10:20 -21.11076 166.62343 28587 ft 430 kts 18°
2026-04-24 10:20 -21.08343 166.63664 28887 ft 432 kts 18°
2026-04-24 10:20 -21.05597 166.64992 29169 ft 434 kts 18°
2026-04-24 10:20 -21.02834 166.66327 29445 ft 436 kts 18°
2026-04-24 10:21 -21.00054 166.67669 29718 ft 439 kts 17°
2026-04-24 10:21 -20.97308 166.68994 29984 ft 441 kts 17°
2026-04-24 10:21 -20.94507 166.70344 30233 ft 443 kts 17°
2026-04-24 10:21 -20.91657 166.71716 30474 ft 444 kts 17°
2026-04-24 10:22 -20.88870 166.73057 30721 ft 445 kts 17°
2026-04-24 10:22 -20.86041 166.74420 30989 ft 445 kts 17°
2026-04-24 10:22 -20.83229 166.75776 31361 ft 443 kts 17°
2026-04-24 10:22 -20.81339 166.76687 31621 ft 441 kts 17°
2026-04-24 10:23 -20.78542 166.78037 32015 ft 439 kts 17°
2026-04-24 10:23 -20.74859 166.79812 32530 ft 436 kts 17°
2026-04-24 10:23 -20.72105 166.81139 32922 ft 434 kts 17°
2026-04-24 10:23 -20.69361 166.82458 33319 ft 431 kts 17°
2026-04-24 10:24 -20.67519 166.83344 33586 ft 430 kts 17°
2026-04-24 10:24 -20.64794 166.84652 33988 ft 428 kts 17°
2026-04-24 10:24 -20.62087 166.85951 34328 ft 425 kts 17°
2026-04-24 10:24 -20.59394 166.87243 34656 ft 424 kts 17°
2026-04-24 10:25 -20.56704 166.88533 34944 ft 423 kts 17°
2026-04-24 10:25 -20.54019 166.89821 35067 ft 423 kts 17°
2026-04-24 10:25 -20.51335 166.91108 35096 ft 421 kts 17°
2026-04-24 10:26 -20.46001 166.93664 35092 ft 420 kts 17°
2026-04-24 10:26 -20.40674 166.96212 35090 ft 420 kts 17°
2026-04-24 10:27 -20.35379 166.98745 35084 ft 420 kts 17°
2026-04-24 10:27 -20.30048 167.01297 35068 ft 420 kts 18°
2026-04-24 10:28 -20.24708 167.03841 35066 ft 421 kts 18°
2026-04-24 10:28 -20.19365 167.06398 35068 ft 421 kts 18°
2026-04-24 10:29 -20.14015 167.08950 35072 ft 421 kts 18°
2026-04-24 10:29 -20.08665 167.11496 35072 ft 422 kts 18°
2026-04-24 10:30 -20.03305 167.14047 35076 ft 422 kts 18°
2026-04-24 10:30 -19.97949 167.16596 35057 ft 422 kts 18°
2026-04-24 10:31 -19.92582 167.19151 35061 ft 423 kts 18°
2026-04-24 10:31 -19.87209 167.21713 35060 ft 423 kts 18°
2026-04-24 10:32 -19.81822 167.24272 35048 ft 424 kts 18°
2026-04-24 10:32 -19.76435 167.26825 35060 ft 425 kts 18°
2026-04-24 10:33 -19.71034 167.29374 35061 ft 425 kts 18°
2026-04-24 10:33 -19.65627 167.31926 35044 ft 425 kts 18°
2026-04-24 10:34 -19.60222 167.34489 35045 ft 426 kts 19°
2026-04-24 10:34 -19.54810 167.37060 35057 ft 426 kts 19°
2026-04-24 10:35 -19.49431 167.39604 35055 ft 426 kts 18°
2026-04-24 10:35 -19.43978 167.42158 35054 ft 426 kts 18°
2026-04-24 10:36 -19.38556 167.44677 35021 ft 426 kts 18°
2026-04-24 10:36 -19.35878 167.45922 34807 ft 427 kts 19°
2026-04-24 10:36 -19.33153 167.47188 34394 ft 429 kts 19°
2026-04-24 10:36 -19.30412 167.48463 33972 ft 431 kts 19°
2026-04-24 10:37 -19.27660 167.49744 33517 ft 433 kts 19°
2026-04-24 10:37 -19.24896 167.51030 33058 ft 435 kts 19°
2026-04-24 10:37 -19.22084 167.52341 32602 ft 437 kts 19°
2026-04-24 10:37 -19.19334 167.53622 32168 ft 439 kts 19°
2026-04-24 10:38 -19.16532 167.54926 31736 ft 441 kts 18°
2026-04-24 10:38 -19.13726 167.56231 31319 ft 441 kts 18°
2026-04-24 10:38 -19.10922 167.57536 30891 ft 439 kts 18°
2026-04-24 10:38 -19.08128 167.58835 30468 ft 437 kts 18°
2026-04-24 10:39 -19.05348 167.60125 30035 ft 435 kts 18°
2026-04-24 10:39 -19.02592 167.61408 29513 ft 431 kts 19°
2026-04-24 10:39 -18.99859 167.62682 29015 ft 428 kts 19°
2026-04-24 10:39 -18.97149 167.63943 28527 ft 424 kts 19°
2026-04-24 10:40 -18.94445 167.65197 27607 ft 427 kts 19°
2026-04-24 10:40 -18.91719 167.66455 26940 ft 425 kts 19°
2026-04-24 10:40 -18.89024 167.67704 26384 ft 420 kts 19°
2026-04-24 10:40 -18.86367 167.68926 25806 ft 415 kts 17°
2026-04-24 10:41 -18.83816 167.70155 25929 ft 390 kts 18°
2026-04-24 10:41 -18.81309 167.71255 25119 ft 394 kts 18°
2026-04-24 10:41 -18.78783 167.72392 24227 ft 393 kts 18°
2026-04-24 10:41 -18.76281 167.73551 23658 ft 392 kts 19°
2026-04-24 10:42 -18.73803 167.74717 23098 ft 388 kts 19°
2026-04-24 10:42 -18.71353 167.75874 22608 ft 383 kts 19°
2026-04-24 10:42 -18.68941 167.77005 22149 ft 377 kts 19°
2026-04-24 10:42 -18.66551 167.78117 21690 ft 373 kts 19°
2026-04-24 10:43 -18.64190 167.79209 21243 ft 369 kts 19°
2026-04-24 10:43 -18.61854 167.80287 20796 ft 365 kts 19°
2026-04-24 10:43 -18.59533 167.81357 20339 ft 363 kts 19°
2026-04-24 10:43 -18.57229 167.82417 19882 ft 360 kts 19°
2026-04-24 10:44 -18.54934 167.83472 19404 ft 359 kts 19°
2026-04-24 10:44 -18.52646 167.84523 18905 ft 359 kts 19°
2026-04-24 10:44 -18.50355 167.85581 18401 ft 360 kts 20°
2026-04-24 10:44 -18.48056 167.86643 17829 ft 360 kts 20°
2026-04-24 10:45 -18.45770 167.87703 17313 ft 359 kts 20°
2026-04-24 10:45 -18.43488 167.88762 16797 ft 358 kts 20°
2026-04-24 10:45 -18.41215 167.89817 16279 ft 357 kts 20°
2026-04-24 10:45 -18.38944 167.90867 15769 ft 356 kts 21°
2026-04-24 10:46 -18.36682 167.91912 15263 ft 355 kts 20°
2026-04-24 10:46 -18.34424 167.92956 14756 ft 354 kts 21°
2026-04-24 10:46 -18.32170 167.94001 14249 ft 354 kts 21°
2026-04-24 10:46 -18.29949 167.95026 13720 ft 353 kts 21°
2026-04-24 10:47 -18.27701 167.96065 13170 ft 352 kts 21°
2026-04-24 10:47 -18.25469 167.97098 12651 ft 349 kts 20°
2026-04-24 10:47 -18.23259 167.98119 12131 ft 346 kts 20°
2026-04-24 10:47 -18.21057 167.99137 11606 ft 344 kts 20°
2026-04-24 10:48 -18.18868 168.00147 11074 ft 343 kts 20°
2026-04-24 10:48 -18.16692 168.01150 10551 ft 341 kts 21°
2026-04-24 10:48 -18.14558 168.02136 10391 ft 327 kts 21°
2026-04-24 10:48 -18.12517 168.03079 10273 ft 314 kts 20°
2026-04-24 10:49 -18.10556 168.03984 10154 ft 302 kts 21°
2026-04-24 10:49 -18.08659 168.04858 9958 ft 294 kts 22°
2026-04-24 10:49 -18.06799 168.05716 9642 ft 291 kts 21°
2026-04-24 10:49 -18.04945 168.06567 9229 ft 290 kts 23°
2026-04-24 10:50 -18.03100 168.07414 8830 ft 289 kts 23°
2026-04-24 10:50 -18.01262 168.08260 8432 ft 288 kts 24°
2026-04-24 10:50 -17.99425 168.09103 8041 ft 287 kts 24°
2026-04-24 10:50 -17.97594 168.09943 7650 ft 287 kts 25°
2026-04-24 10:51 -17.95770 168.10779 7255 ft 286 kts 25°
2026-04-24 10:51 -17.93951 168.11614 6861 ft 285 kts 27°
2026-04-24 10:51 -17.92137 168.12448 6476 ft 284 kts 26°
2026-04-24 10:51 -17.90333 168.13277 6060 ft 283 kts 27°
2026-04-24 10:52 -17.88536 168.14103 5668 ft 281 kts 25°
2026-04-24 10:52 -17.86758 168.14922 5264 ft 279 kts 27°
2026-04-24 10:52 -17.84990 168.15737 4902 ft 277 kts 27°
2026-04-24 10:52 -17.83231 168.16547 4501 ft 275 kts 28°
2026-04-24 10:53 -17.81485 168.17349 4130 ft 272 kts 27°
2026-04-24 10:53 -17.79755 168.18143 3748 ft 270 kts 28°
2026-04-24 10:53 -17.78065 168.18916 3595 ft 258 kts 28°
2026-04-24 10:53 -17.76473 168.19642 3568 ft 242 kts 29°
2026-04-24 10:54 -17.74904 168.20364 2992 ft 248 kts 29°
2026-04-24 10:54 -17.73354 168.21126 2458 ft 243 kts 34°
2026-04-24 10:54 -17.71950 168.22032 2059 ft 229 kts 41°
2026-04-24 10:54 -17.70770 168.23015 1748 ft 206 kts 49°
2026-04-24 10:55 -17.69803 168.24019 1495 ft 185 kts 54°
2026-04-24 10:55 -17.69023 168.25003 1259 ft 166 kts 59°
2026-04-24 10:55 -17.68426 168.25950 1063 ft 144 kts 72°
2026-04-24 10:55 -17.68156 168.26909 881 ft 132 kts 86°
2026-04-24 10:56 -17.68156 168.27861 603 ft 130 kts 98°
2026-04-24 10:56 -17.68388 168.28781 556 ft 135 kts 108°
2026-04-24 10:56 -17.68739 168.29676 330 ft 131 kts 118°
2026-04-24 10:56 -17.69191 168.30524 127 ft 133 kts 118°
2026-04-24 10:57 -17.69609 168.31353 54 ft 110 kts 118°
2026-04-24 10:57 -17.69828 168.31779 55 ft 23 kts 119°
2026-04-24 10:57 -17.69846 168.31813 58 ft 12 kts 119°
2026-04-24 10:57 -17.69899 168.31917 57 ft 11 kts 118°
2026-04-24 10:58 -17.70001 168.31942 53 ft 21 kts 207°
2026-04-24 10:58 -17.70077 168.31934 57 ft 10 kts 154°
2026-04-24 10:58 -17.70115 168.31984 56 ft 0 kts 113°
2026-04-24 10:59 -17.83213 168.16555 4501 ft 276 kts 28°
2026-04-24 10:59 -17.81467 168.17357 4130 ft 272 kts 27°
2026-04-24 10:59 -17.68969 168.30100 225 ft 132 kts 119°
2026-04-24 10:59 -17.69287 168.30714 107 ft 132 kts 117°
2026-04-24 11:00 -17.69683 168.31496 54 ft 91 kts 118°
2026-04-24 11:00 -17.69310 168.30760 96 ft 132 kts 118°
2026-04-24 11:00 -17.69474 168.31086 48 ft 129 kts 117°
2026-04-24 11:00 -17.69786 168.31697 54 ft 52 kts 118°
2026-04-24 11:01 -17.69839 168.31799 57 ft 2 kts 119°
2026-04-24 11:01 -17.69786 168.31697 54 ft 37 kts 118°
2026-04-24 11:02 -17.68174 168.27971 601 ft 129 kts 101°
2026-04-24 11:02 -17.68127 168.27352 724 ft 126 kts 96°
2026-04-24 11:02 -17.68129 168.27493 678 ft 129 kts 95°
2026-04-24 11:02 -17.68175 168.27973 601 ft 129 kts 101°
2026-04-24 11:03 -17.68424 168.28893 538 ft 134 kts 107°
2026-04-24 11:03 -17.68793 168.29777 309 ft 132 kts 120°
2026-04-24 11:03 -17.69243 168.30626 119 ft 133 kts 116°
2026-04-24 11:03 -17.69651 168.31434 58 ft 99 kts 118°
2026-04-24 11:04 -17.69730 168.31589 54 ft 10 kts 118°
2026-04-24 11:04 -17.68557 168.25695 1119 ft 136 kts 66°
2026-04-24 11:06 -17.68528 168.25747 1108 ft 150 kts 67°
2026-04-24 11:06 -17.68190 168.26703 960 ft 136 kts 85°
2026-04-24 11:06 -17.68137 168.27668 646 ft 131 kts 97°
2026-04-24 11:07 -17.68659 168.29504 359 ft 130 kts 116°
2026-04-24 11:07 -17.69095 168.30341 135 ft 134 kts 118°
2026-04-24 11:07 -17.69525 168.31189 56 ft 125 kts 117°
2026-04-24 11:08 -17.69805 168.31735 56 ft 41 kts 118°
2026-04-24 11:08 -17.69838 168.31798 57 ft 0 kts 119°
2026-04-24 11:08 -17.69851 168.31823 54 ft 9 kts 118°
2026-04-24 11:08 -17.69884 168.31889 56 ft 12 kts 116°
2026-04-24 11:09 -17.69939 168.31965 55 ft 14 kts 170°
2026-04-24 11:09 -17.70044 168.31937 54 ft 16 kts 190°
2026-04-24 11:09 -17.70096 168.31936 58 ft 6 kts 160°
2026-04-24 11:09 -17.70110 168.31956 57 ft 0 kts 114°